Startseite
Über Mich
AHP4
Galerie
Sehschlangen
Tourenbuch
Bookmarks
Elektronik
Bewertung
Geschichten
[Tagesmessung] [Jahreswerte] [Information]

Messwerte vom 26.11.2021

Die letzten Messwerte von 23:58:45 Uhr:
KategorieMesswert
Temperatur [°C]2
Luftdruck [mBar]973
Sonneneinstrahlung0
Wind [km/h]6 aus Süd
Niederschlag [l/m²]0
rel.Luftfeucht.96.6%
CO2 [ppm]749

Diagramme
Messwerte vom 26.11.2021
Tagesaggregation
KategorieMinimumMaximumSchnittSumme
Temperatur [°C]152.7896
Luftdruck [mBar]973990981.0979
Sonneneinstrahlung21055.6021
Wind [km/h]19
rF [%]8496.695.15
Niederschlag [l/m²]2.3175
CO2 [ppm]403796653.9
Einordnung alsKalter Tag

Messungen an benachbarten Tagen: Zur Jahresaggregation 2021
Tabelle aller Messwerte
UhrzeitTemperatur [°C]Luftdruck [mBar]SonneWind [km/h]RichtungRegen [l/m²]rF [%]CO2 [ppm]
00:01:46 3 989 0 4 S 0 96.6 554
00:04:48 3 990 0 0 W 0 96.6 565
00:07:48 3 990 0 0 SO 0 96.6 568
00:10:47 2 990 0 0 NO 0 96.6 550
00:13:47 2 989 0 5 W 0 96.6 549
00:16:47 2 990 0 1 SO 0 96.6 550
00:19:47 2 989 0 4 S 0 96.6 555
00:22:47 2 989 0 0 NO 0 96.6 555
00:25:48 2 989 0 0 SO 0 96.6 555
00:28:48 2 989 0 1 SW 0 96.6 550
00:31:47 2 989 0 4 W 0 96.6 550
00:34:46 2 989 0 4 W 0 96.6 552
00:37:46 2 989 0 2 W 0 96.6 559
00:40:46 2 989 0 1 SO 0 96.6 557
00:43:48 2 989 0 2 SW 0 96.6 565
00:46:46 2 989 0 1 S 0 96.6 568
00:49:45 2 989 0 4 W 0 96.6 565
00:52:48 2 990 0 3 W 0 96.6 556
00:55:47 2 989 0 3 W 0 96.6 553
00:58:49 2 988 0 2 O 0 96.6 553
01:01:47 2 989 0 6 SW 0 96.6 556
01:04:46 2 988 0 0 S 0 96.6 560
01:07:45 2 989 0 2 S 0 96.6 559
01:10:46 2 988 0 0 SO 0 96.6 556
01:13:46 2 988 0 0 SW 0 96.6 559
01:16:46 2 989 0 1 S 0 96.6 561
01:19:47 2 988 0 1 S 0 96.6 556
01:22:46 2 989 0 1 SO 0 96.6 548
01:25:47 2 988 0 0 SO 0 96.6 548
01:28:47 2 988 0 1 SW 0 96.6 548
01:31:47 2 988 0 2 NO 0 96.6 553
01:34:47 2 988 0 3 S 0 96.6 553
01:37:49 2 988 0 1 SO 0 96.6 553
01:40:46 2 988 0 2 O 0 96.6 550
01:43:48 2 989 0 2 S 0 96.6 550
01:46:47 2 988 0 1 NW 0 96.6 547
01:49:47 3 988 0 0 SO 0 96.6 550
01:52:47 3 988 0 0 SW 0 96.6 559
01:55:46 3 988 0 0 SO 0 96.6 562
01:58:47 3 988 0 1 SW 0 96.6 562
02:01:46 3 988 0 1 N 0 96.6 550
02:04:48 3 988 0 2 S 0 96.6 556
02:07:46 3 988 0 0 O 0 96.6 557
02:10:48 3 989 0 0 NO 0 96.6 562
02:13:48 3 987 0 4 SO 0 96.6 557
02:16:47 3 988 0 3 SW 0 96.6 556
02:19:48 3 988 0 1 SW 0 96.6 554
02:22:48 3 988 0 1 SO 0 96.6 550
02:25:46 3 988 0 4 SW 0 96.6 551
02:28:48 3 987 0 3 SW 0 96.6 553
02:31:46 3 987 0 3 SO 0 96.6 560
02:34:46 3 988 0 2 S 0 96.6 564
02:37:46 3 988 0 0 S 0 96.6 562
02:40:49 3 988 0 3 NW 0 96.6 559
02:43:45 3 988 0 1 S 0 96.6 556
02:46:46 3 988 0 1 SW 0 96.6 566
02:49:47 3 988 0 1 S 0 96.6 571
02:52:45 3 987 0 1 S 0 96.6 567
02:55:46 3 987 0 3 W 0 96.6 562
02:58:49 3 988 0 0 SW 0 96.6 565
03:01:47 3 987 0 3 SW 0 96.6 564
03:04:46 3 987 0 2 W 0 96.6 568
03:07:45 3 987 0 3 0 96.6 567
03:10:46 3 987 0 1 W 0 96.6 574
03:13:47 3 987 0 4 SO 0 96.6 570
03:16:45 3 987 0 1 NO 0 96.6 562
03:19:50 3 987 0 4 W 0 96.6 562
03:22:46 3 987 0 3 W 0 96.6 565
03:25:46 3 987 0 4 N 0 96.6 572
03:28:44 3 987 0 1 SO 0 96.6 571
03:31:48 3 987 0 5 SW 0 96.6 572
03:34:48 3 987 0 1 SO 0 96.6 571
03:37:47 3 987 0 2 SW 0 96.6 577
03:40:45 3 987 0 3 S 0 96.6 580
03:43:45 3 987 0 9 O 0 96.6 574
03:46:45 3 987 0 0 SO 0 96.6 576
03:49:47 3 987 0 2 O 0 96.6 577
03:52:48 3 987 0 2 S 0 96.6 575
03:55:46 3 987 0 1 SO 0 96.6 579
03:58:45 3 987 0 0 W 0 96.6 576
04:01:48 3 987 0 1 SW 0 96.6 580
04:04:45 3 987 0 2 W 0 96.6 573
04:07:47 3 987 0 2 SO 0 96.6 571
04:10:48 3 987 0 3 SW 0 96.6 573
04:13:48 3 987 0 3 NW 0 96.6 586
04:16:45 3 987 0 1 O 0 96.6 594
04:19:45 3 987 0 2 SW 0 96.6 597
04:22:47 3 987 0 4 S 0 96.6 583
04:25:46 3 987 0 0 SO 0 96.6 580
04:28:46 3 987 0 1 SO 0 96.6 580
04:31:47 3 987 0 1 NO 0 96.6 580
04:34:49 3 987 0 1 S 0 96.6 580
04:37:48 3 987 0 10 S 0 96.6 581
04:40:47 3 986 0 2 W 0 96.6 585
04:43:44 3 987 0 2 S 0 96.6 586
04:46:44 3 987 0 1 N 0 96.6 588
04:49:47 3 987 0 1 S 0 96.6 586
04:52:46 3 987 0 1 S 0 96.6 582
04:55:45 3 987 0 0 NW 0 96.6 580
04:58:48 3 987 0 2 SO 0 96.6 577
05:01:46 3 987 0 0 S 0 96.6 580
05:04:50 3 987 0 1 SW 0 96.6 579
05:07:47 3 987 0 1 W 0 96.6 586
05:10:46 3 987 0 1 S 0 96.6 583
05:13:47 3 987 0 0 SW 0 96.6 571
05:16:47 3 986 0 0 SO 0 96.6 577
05:19:47 2 986 0 0 S 0 96.6 583
05:22:47 2 987 0 1 SO 0 96.6 583
05:25:46 2 986 0 2 S 0 96.6 575
05:28:47 2 986 0 0 NO 0 96.6 574
05:31:46 2 986 0 0 O 0 96.6 577
05:34:48 2 986 0 1 NW 0 96.6 583
05:37:46 2 986 0 2 SW 0 96.6 582
05:40:49 2 986 0 0 SW 0 96.6 586
05:43:45 2 985 0 1 O 0 96.6 587
05:46:47 2 986 0 0 SW 0 96.6 588
05:49:49 2 985 0 0 SW 0 96.6 589
05:52:45 2 986 0 0 S 0 96.6 588
05:55:46 2 986 0 0 S 0 96.6 585
05:58:46 2 986 0 0 S 0 96.6 585
06:01:46 2 985 0 1 SO 0 96.6 591
06:04:47 2 985 0 0 S 0 96.6 588
06:07:45 2 985 0 0 S 0 96.6 591
06:10:48 2 985 0 2 SO 0 96.6 589
06:13:47 3 986 0 0 O 0 96.6 588
06:16:46 3 985 0 0 SW 0 96.6 594
06:19:46 2 985 0 0 S 0 96.6 600
06:22:48 2 985 0 0 SO 0 96.6 597
06:25:46 2 984 0 3 S 0 96.6 594
06:28:45 2 984 0 2 S 0 96.6 591
06:31:46 3 984 0 2 NO 0 96.6 594
06:34:45 3 985 0 3 S 0 96.6 591
06:37:48 3 985 0 1 SW 0 96.6 589
06:40:47 3 985 0 2 SW 0 96.6 594
06:43:47 3 985 0 1 SW 0 96.6 588
06:46:47 3 985 0 1 SW 0 96.6 585
06:49:46 3 984 0 1 SO 0 96.6 591
06:52:45 3 985 0 1 S 0 96.6 594
06:55:47 3 984 0 1 S 0 96.6 597
06:58:45 3 984 0 0 S 0 96.6 603
07:01:47 3 984 0 4 SW 0 96.6 612
07:04:47 3 984 0 5 S 0 96.6 605
07:07:44 3 984 0 3 S 0 96.6 603
07:10:45 3 984 0 3 S 0 96.6 612
07:13:48 3 984 0 2 SW 0 96.6 624
07:16:48 3 984 0 2 SW 0 96.6 404
07:19:45 3 985 0 5 S 0 96.6 404
07:22:47 3 984 0 2 S 0 96.6 404
07:25:46 3 984 0 6 SW 0 96.6 406
07:28:45 3 984 3 3 S 0 96.5 403
07:31:45 3 984 4 2 S 0 96.4 405
07:34:46 3 984 6 3 SO 0 96.4 404
07:37:46 3 984 8 6 S 0 96.4 407
07:40:48 3 984 12 2 S 0 96.5 405
07:43:45 3 984 17 4 SO 0 96.4 407
07:46:45 3 984 23 1 S 0 96.3 407
07:49:47 3 984 29 6 S 0 96.3 404
07:52:47 3 984 38 2 S 0 96.3 404
07:55:47 3 984 48 8 S 0 96.2 407
07:58:45 3 984 54 4 SW 0 96.1 407
08:01:46 3 984 63 3 SW 0 95.7 403
08:04:48 3 984 78 6 SW 0 95.6 407
08:07:45 3 983 87 2 O 0 95.5 411
08:10:47 3 984 94 2 SO 0 95.3 413
08:13:48 3 984 101 2 S 0 95.2 422
08:16:48 3 984 108 2 SW 0 95.2 427
08:19:47 3 984 114 6 0 95.1 434
08:22:48 3 984 119 1 SW 0 95.1 430
08:25:47 3 984 124 1 S 0 95 433
08:28:49 3 984 129 4 SW 0 95 439
08:31:46 3 984 127 4 NW 0 94.8 448
08:34:48 3 984 130 4 S 0 94.7 448
08:37:48 3 984 136 1 SW 0 94.4 431
08:40:50 3 984 140 2 S 0 94.1 433
08:43:48 3 987 142 2 SO 0 93.9 439
08:46:47 3 984 145 2 SW 0 93.8 451
08:49:48 3 984 150 4 SO 0 93.8 445
08:52:46 3 984 155 3 SW 0 93.8 451
08:55:46 3 984 159 2 S 0 93.8 457
08:58:49 3 984 163 3 SO 0 93.2 460
09:01:48 3 984 165 4 S 0 92.9 459
09:04:49 3 983 168 6 SO 0 92.6 471
09:07:47 3 984 170 3 SO 0 92.5 471
09:10:47 4 984 174 4 SW 0 92.4 477
09:13:48 4 984 178 2 SO 0 92.2 488
09:16:48 4 983 181 2 S 0 92.2 492
09:19:47 4 984 181 2 SO 0 92.2 495
09:22:46 4 984 180 6 S 0 91.7 497
09:25:48 4 984 179 10 SO 0 91.5 509
09:28:47 4 984 179 3 SO 0 91.4 512
09:31:48 4 983 182 5 S 0 91.4 512
09:34:48 4 983 184 4 SO 0 91.3 524
09:37:48 4 983 184 7 0 91 518
09:40:48 4 984 183 4 S 0 91 527
09:43:48 4 984 179 3 SW 0 90.8 529
09:46:47 4 984 179 5 S 0 90.4 544
09:49:48 4 983 181 5 SO 0 90.5 547
09:52:48 4 984 181 1 S 0 90.6 550
09:55:47 4 983 181 0 SW 0 90.6 547
09:58:47 4 983 182 2 O 0 90.5 554
10:01:47 4 984 184 3 S 0 90.5 562
10:04:49 4 984 185 2 SW 0 90.4 579
10:07:45 4 983 187 1 SO 0 90.1 583
10:10:48 4 984 188 6 SO 0 90.5 577
10:13:48 4 983 190 1 S 0 90.3 571
10:16:47 4 983 191 1 SO 0 90.1 407
10:19:49 4 983 193 6 SW 0 90.4 407
10:22:48 4 983 195 6 SO 0 89.3 489
10:25:47 4 983 198 7 S 0 89.2 527
10:28:50 4 983 197 2 SW 0 89.1 538
10:31:47 4 983 197 5 S 0 89.3 539
10:34:46 5 984 201 1 SW 0 89 533
10:37:48 5 983 204 5 SW 0 88.7 530
10:40:50 5 983 205 3 S 0 88.3 524
10:43:46 5 983 207 3 S 0 88.3 532
10:46:46 5 983 208 6 S 0 87.9 534
10:49:49 5 983 208 3 SO 0 87.7 539
10:52:50 5 983 208 4 SO 0 87.4 542
10:55:48 5 983 208 3 S 0 87 548
10:58:48 5 983 209 7 S 0 86.9 543
11:01:50 5 983 210 6 SW 0 86.4 542
11:04:46 5 982 210 3 O 0 86.7 547
11:07:47 5 982 209 2 S 0 86.8 530
11:10:50 5 982 207 6 SW 0 85.7 527
11:13:46 5 982 206 5 S 0 85.1 535
11:16:47 5 983 205 7 SW 0 85.6 556
11:19:49 5 982 204 8 SO 0 85.5 559
11:22:48 5 982 204 4 S 0 84.8 565
11:25:46 5 982 203 3 S 0 85.1 575
11:28:48 5 982 204 4 SO 0 85.6 586
11:31:47 5 981 206 2 W 0 85 592
11:34:46 5 981 207 6 S 0 85.2 594
11:37:45 5 981 207 3 S 0 85.1 603
11:40:49 5 981 207 2 SW 0 85.5 614
11:43:49 5 981 206 7 SW 0 85.5 623
11:46:47 5 981 206 3 S 0 85.6 638
11:49:49 5 981 204 2 SO 0 85.2 638
11:52:47 5 981 205 2 SW 0 84.9 644
11:55:47 5 981 207 11 SO 0 85.1 647
11:58:47 5 980 206 4 SO 0 84.8 653
12:01:48 5 981 204 8 SW 0 84.1 658
12:04:48 5 980 200 2 W 0 84.2 661
12:07:48 5 981 197 6 S 0 84.9 665
12:10:46 5 981 197 7 S 0 84.4 677
12:13:49 5 980 196 8 SW 0 84.4 686
12:16:49 5 980 190 10 SO 0 84.8 687
12:19:46 5 981 185 4 O 0 84 686
12:22:47 5 981 178 4 SW 0 84.9 706
12:25:47 5 980 178 5 SO 0 84.7 720
12:28:45 5 980 178 1 SW 0 84.7 717
12:31:47 5 980 172 3 W 0 86.5 718
12:34:46 5 980 170 9 W 0 87.5 733
12:37:49 5 980 168 12 S 0 88.4 739
12:40:48 4 980 172 2 SO 0 89.8 601
12:43:48 4 980 166 3 NW 0 90.2 682
12:46:45 4 980 165 4 W 0 91.3 754
12:49:46 4 980 164 7 S 0 92.5 768
12:52:47 4 980 162 2 S 0.2575 93.4 773
12:55:45 4 980 161 3 S 0 94.4 764
12:58:46 4 980 155 3 S 0 95.3 750
13:01:47 4 980 156 2 S 0 96.2 753
13:04:46 4 980 157 4 S 0 96.6 764
13:07:49 4 980 164 10 SO 0 96.6 776
13:10:47 4 980 167 7 SO 0 96.6 774
13:13:48 4 980 173 2 SO 0.2575 96.6 760
13:16:45 3 980 174 3 S 0 96.6 764
13:19:47 3 980 174 5 S 0 96.6 761
13:22:48 3 980 168 7 SO 0 96.6 762
13:25:48 3 980 175 5 SO 0 96.6 773
13:28:47 3 980 169 7 S 0 96.6 766
13:31:49 3 980 166 3 S 0 96.6 759
13:34:49 3 980 158 2 SO 0 96.6 753
13:37:47 3 980 155 6 SO 0.2575 96.6 756
13:40:47 3 980 158 5 S 0 96.6 759
13:43:46 3 980 158 5 S 0 96.6 759
13:46:46 3 979 160 5 SO 0 96.6 763
13:49:49 3 980 159 4 SO 0 96.6 764
13:52:47 3 980 155 3 SO 0 96.6 775
13:55:48 3 980 159 4 SW 0.2575 96.6 761
13:58:47 3 980 152 7 SO 0 96.6 749
14:01:47 3 979 153 2 SO 0 96.6 753
14:04:49 3 980 154 5 SO 0 96.6 762
14:07:47 3 980 150 1 S 0 96.6 770
14:10:49 3 980 150 2 SO 0 96.6 764
14:13:46 3 980 147 0 S 0 96.6 779
14:16:47 3 980 148 6 W 0.2575 96.6 758
14:19:48 3 980 146 4 SO 0 96.6 764
14:22:47 3 979 140 3 S 0 96.6 754
14:25:48 3 979 139 3 SO 0 96.6 764
14:28:47 3 979 134 3 S 0 96.6 759
14:31:45 3 979 128 3 S 0 96.6 764
14:34:46 3 979 117 0 S 0 96.6 765
14:37:47 3 980 123 6 S 0.2575 96.6 761
14:40:47 3 980 121 2 SO 0 96.6 764
14:43:46 3 979 125 4 SO 0 96.6 764
14:46:48 3 979 116 3 SO 0 96.6 764
14:49:48 3 979 111 1 O 0 96.6 768
14:52:46 3 979 129 1 S 0 96.6 776
14:55:47 3 979 134 1 SO 0 96.6 780
14:58:50 3 979 132 2 SW 0.2575 96.6 782
15:01:47 3 979 153 3 O 0 96.6 782
15:04:47 3 979 147 5 SO 0 96.6 782
15:07:48 3 979 140 3 SO 0 96.6 778
15:10:48 3 979 145 7 SO 0 96.6 776
15:13:47 3 978 144 3 S 0 96.6 782
15:16:48 3 978 140 4 S 0 96.6 784
15:19:47 3 978 138 2 SW 0 96.6 782
15:22:48 3 978 138 5 SO 0 96.6 787
15:25:47 3 978 136 3 S 0 96.6 787
15:28:45 3 978 133 6 S 0 96.6 785
15:31:47 3 978 126 1 S 0 96.6 790
15:34:48 3 978 118 6 W 0 96.6 787
15:37:47 3 978 115 7 SO 0 96.6 787
15:40:49 3 978 110 8 SO 0.2575 96.6 787
15:43:47 3 978 103 3 S 0 96.6 789
15:46:47 3 978 99 5 S 0 96.6 787
15:49:47 3 978 97 7 S 0 96.6 776
15:52:47 3 978 92 2 SO 0 96.6 773
15:55:47 3 978 80 6 S 0 96.6 776
15:58:48 3 977 75 0 SO 0 96.6 784
16:01:45 3 978 64 7 S 0 96.6 790
16:04:46 3 978 55 2 O 0 96.6 782
16:07:45 3 977 49 3 S 0 96.6 781
16:10:47 3 977 42 4 SO 0 96.6 779
16:13:48 3 978 35 4 SW 0 96.6 782
16:16:48 3 978 27 2 S 0 96.6 782
16:19:45 3 978 25 9 NO 0 96.6 791
16:22:47 3 977 24 4 S 0 96.6 796
16:25:48 3 977 21 3 SO 0.2575 96.6 794
16:28:47 3 977 18 2 SO 0 96.6 785
16:31:46 3 977 12 0 S 0 96.6 781
16:34:46 3 978 6 1 SO 0 96.6 779
16:37:44 3 977 4 0 S 0 96.6 775
16:40:47 2 976 3 3 S 0 96.6 779
16:43:46 2 977 0 0 S 0 96.6 778
16:46:44 2 977 0 2 S 0 96.6 778
16:49:45 2 977 0 3 SO 0 96.6 776
16:52:46 2 976 0 2 S 0 96.6 780
16:55:48 2 976 0 1 SO 0 96.6 786
16:58:46 2 976 0 5 SO 0 96.6 788
17:01:48 2 976 0 2 SO 0 96.6 792
17:04:50 2 976 0 1 SO 0 96.6 788
17:07:47 2 976 0 2 SO 0 96.6 788
17:10:46 2 976 0 5 SO 0 96.6 789
17:13:47 2 976 0 2 S 0 96.6 785
17:16:47 2 976 0 2 SO 0 96.6 779
17:19:44 2 976 0 2 S 0 96.6 777
17:22:47 2 976 0 2 SO 0 96.6 779
17:25:46 2 976 0 4 S 0 96.6 777
17:28:47 2 976 0 5 SO 0 96.6 772
17:31:47 2 976 0 4 SO 0 96.6 770
17:34:46 2 976 0 6 S 0 96.6 765
17:37:45 2 976 0 2 SO 0 96.6 772
17:40:45 2 976 0 3 SO 0 96.6 766
17:43:45 2 976 0 3 SO 0 96.6 761
17:46:45 2 976 0 3 S 0 96.6 750
17:49:48 2 976 0 1 SO 0 96.6 758
17:52:44 2 976 0 4 S 0 96.6 770
17:55:45 2 976 0 1 SO 0 96.6 772
17:58:45 2 981 0 1 O 0 96.6 767
18:01:47 2 976 0 6 SO 0 96.6 773
18:04:45 2 976 0 8 SO 0 96.6 767
18:07:45 2 976 0 1 S 0 96.6 773
18:10:46 2 976 0 4 S 0 96.6 767
18:13:47 2 976 0 2 SO 0 96.6 773
18:16:47 2 976 0 3 SO 0 96.6 769
18:19:50 2 976 0 6 NW 0 96.6 773
18:22:45 2 976 0 9 S 0 96.6 771
18:25:47 2 976 0 19 SO 0 96.6 780
18:28:49 2 976 0 6 SO 0 96.6 780
18:31:46 2 976 0 9 SW 0 96.6 780
18:34:48 2 976 0 2 SO 0 96.6 778
18:37:47 2 976 0 6 SO 0 96.6 782
18:40:46 2 976 0 3 S 0 96.6 783
18:43:47 2 976 0 6 S 0 96.6 787
18:46:47 2 976 0 6 SO 0 96.6 788
18:49:47 2 976 0 2 SO 0 96.6 786
18:52:47 2 976 0 8 SO 0 96.6 784
18:55:48 2 976 0 6 S 0 96.6 787
18:58:49 2 976 0 8 S 0 96.6 790
19:01:46 2 976 0 4 S 0 96.6 794
19:04:47 2 976 0 1 SO 0 96.6 786
19:07:46 2 976 0 5 S 0 96.6 782
19:10:48 2 976 0 5 SO 0 96.6 773
19:13:45 2 976 0 3 O 0 96.6 774
19:16:46 2 976 0 12 S 0 96.6 774
19:19:46 2 976 0 7 O 0 96.6 777
19:22:47 2 976 0 6 SW 0 96.6 786
19:25:47 2 976 0 8 S 0 96.6 787
19:28:46 2 976 0 4 S 0 96.6 793
19:31:46 1 976 0 6 SW 0 96.6 796
19:34:45 1 976 0 6 SO 0 96.6 788
19:37:45 1 976 0 3 NO 0 96.6 785
19:40:47 1 976 0 8 S 0 96.6 788
19:43:48 1 976 0 2 SW 0 96.6 782
19:46:45 1 976 0 1 SO 0 96.6 781
19:49:46 1 976 0 6 S 0 96.6 782
19:52:45 1 976 0 6 SO 0 96.6 777
19:55:44 1 976 0 4 S 0 96.6 782
19:58:45 1 975 0 2 S 0 96.6 782
20:01:46 1 976 0 4 S 0 96.6 785
20:04:49 1 976 0 11 O 0 96.6 782
20:07:49 1 975 0 3 S 0 96.6 779
20:10:46 1 975 0 8 S 0 96.6 774
20:13:47 1 976 0 7 SO 0 96.6 776
20:16:49 1 976 0 4 SO 0 96.6 772
20:19:45 1 976 0 5 S 0 96.6 762
20:22:47 1 976 0 8 SO 0 96.6 750
20:25:46 1 975 0 9 SO 0 96.6 747
20:28:48 1 975 0 8 SW 0 96.6 750
20:31:45 1 975 0 4 W 0 96.6 750
20:34:46 1 975 0 2 SW 0 96.6 747
20:37:46 1 975 0 6 S 0 96.6 747
20:40:47 2 975 0 3 SO 0 96.6 751
20:43:46 2 976 0 4 S 0 96.6 777
20:46:47 2 975 0 6 S 0 96.6 782
20:49:48 2 976 0 4 S 0 96.6 786
20:52:47 2 974 0 4 SO 0 96.6 780
20:55:45 2 974 0 7 S 0 96.6 769
20:58:44 2 975 0 13 S 0 96.6 767
21:01:48 2 974 0 4 S 0 96.6 759
21:04:48 2 975 0 2 SO 0 96.6 758
21:07:44 2 975 0 7 S 0 96.6 759
21:10:48 2 974 0 7 S 0 96.6 762
21:13:45 2 975 0 6 SO 0 96.6 762
21:16:50 2 975 0 13 SW 0 96.6 756
21:19:47 2 975 0 7 O 0 96.6 764
21:22:46 2 975 0 0 S 0 96.6 768
21:25:46 2 974 0 4 S 0 96.6 753
21:28:46 2 974 0 2 S 0 96.6 748
21:31:48 2 975 0 2 SO 0 96.6 756
21:34:47 2 975 0 9 NO 0 96.6 759
21:37:49 2 975 0 3 SO 0 96.6 754
21:40:46 2 974 0 7 SW 0 96.6 756
21:43:46 2 974 0 5 SW 0 96.6 767
21:46:47 2 975 0 4 SO 0 96.6 771
21:49:47 2 974 0 5 S 0 96.6 771
21:52:49 2 974 0 6 SO 0 96.6 761
21:55:46 2 975 0 3 SO 0 96.6 752
21:58:47 2 975 0 4 SW 0 96.6 755
22:01:46 2 974 0 1 SO 0 96.6 752
22:04:47 2 974 0 11 SO 0 96.6 762
22:07:48 2 982 0 7 SW 0 96.6 770
22:10:48 2 974 0 11 S 0 96.6 765
22:13:46 2 973 0 1 0 96.6 759
22:16:47 2 973 0 2 SO 0 96.6 758
22:19:48 2 974 0 6 SO 0 96.6 757
22:22:47 2 973 0 4 SO 0 96.6 762
22:25:46 2 974 0 4 SO 0 96.6 758
22:28:47 2 973 0 7 NO 0 96.6 773
22:31:48 2 973 0 3 S 0 96.6 778
22:34:46 2 973 0 7 SO 0 96.6 775
22:37:47 2 973 0 5 NW 0 96.6 773
22:40:48 2 973 0 7 SO 0 96.6 767
22:43:46 2 974 0 6 SO 0 96.6 758
22:46:46 2 973 0 7 S 0 96.6 752
22:49:47 2 973 0 10 S 0 96.6 755
22:52:50 2 973 0 10 SO 0 96.6 746
22:55:46 2 973 0 10 SW 0 96.6 752
22:58:46 2 973 0 1 S 0 96.6 752
23:01:45 2 973 0 7 O 0 96.6 758
23:04:47 2 973 0 4 S 0 96.6 762
23:07:47 2 973 0 4 SO 0 96.6 756
23:10:48 2 973 0 5 SW 0 96.6 756
23:13:48 2 973 0 11 SO 0 96.6 748
23:16:46 2 973 0 5 SO 0 96.6 746
23:19:46 2 973 0 6 SO 0 96.6 744
23:22:46 2 973 0 7 SO 0 96.6 744
23:25:46 2 973 0 4 SO 0 96.6 744
23:28:48 2 973 0 5 SO 0 96.6 748
23:31:45 2 973 0 7 S 0 96.6 743
23:34:47 2 973 0 5 S 0 96.6 750
23:37:48 2 973 0 8 SO 0 96.6 753
23:40:47 2 973 0 5 SO 0 96.6 751
23:43:48 2 973 0 3 SO 0 96.6 748
23:46:47 2 973 0 6 SO 0 96.6 752
23:49:46 2 973 0 2 SO 0 96.6 753
23:52:47 2 973 0 4 O 0 96.6 750
23:55:48 2 973 0 6 SO 0 96.6 750
23:58:45 2 973 0 6 S 0 96.6 749

Letzte Änderung : 04-Jan-2022
Copyright Jens Köhler, Wolfsburg, Obere Dorfstraße 10d